National Weather Service Raw Text Product

Displaying AFOS PIL: RWRIA Received: 2018-02-14 09:00 UTC


550 
ASUS43 KDMX 140906
RWRIA 

WEATHER ROUNDUP FOR IOWA
NATIONAL WEATHER SERVICE DES MOINES IA
300 AM CST WED FEB 14 2018

NOTE: "FAIR" INDICATES FEW OR NO CLOUDS BELOW 12,000 FEET WITH NO
SIGNIFICANT WEATHER AND/OR OBSTRUCTIONS TO VISIBILITY.

* - THESE STATIONS ARE NOT NWS STATIONS...THUS NOT UNDER NWS
QUALITY CONTROL.  THEY ALSO DO NOT REPORT WEATHER SUCH 
AS PRECIPITATION OR FOG.  

IAZ001>003-012>014-020>022-031>034-043>046-141000-
   NORTHWEST IOWA
  
CITY           SKY/WX    TMP DP  RH WIND       PRES   REMARKS
CARROLL *      CLOUDY    32  27  80 SW14      30.01F WCI  22          
CHEROKEE *     CLOUDY    18  18 100 CALM      30.00F                  
DENISON *      CLEAR     27  25  93 CALM      30.03F                  
LE MARS *      CLEAR     19  19 100 S7        29.99F WCI  10          
ORANGE CITY *  CLOUDY    19  18  93 S6        29.97F WCI  11          
SHELDON *      CLOUDY    18  18 100 S9        29.96F WCI   6          
SIOUX CITY     CLOUDY    19  17  92 E8        30.00F WCI   9          
SPENCER        CLOUDY    16  12  84 W6        29.98F WCI   7          
STORM LAKE *   CLOUDY    28  23  80 SW14      30.00F WCI  17          
$$
 
IAZ055>058-069>071-079>083-090>094-141000-
   SOUTHWEST IOWA
  
CITY           SKY/WX    TMP DP  RH WIND       PRES   REMARKS
ATLANTIC *     CLOUDY    25  25 100 S6        30.06F WCI  18          
AUDUBON *      CLOUDY    32  27  80 S9        30.04F WCI  24          
CLARINDA *     CLEAR     28  28 100 SW6       30.11F WCI  22          
COUNCIL BLFS * CLOUDY    36  32  87 SW10      30.04F WCI  28          
CRESTON *      CLEAR     32  27  80 SW12      30.08F WCI  23          
HARLAN  *      CLOUDY    21  21 100 SW6       30.07F WCI  14          
LAMONI         CLEAR     32  26  78 S12       30.10F WCI  23          
RED OAK *      CLEAR     28  25  86 CALM      30.07F                  
SHENANDOAH *   CLEAR     28  27  93 SE3       30.08F                  
$$
 
IAZ047>049-059>061-072>074-084-141000-
   CENTRAL IOWA
  
CITY           SKY/WX    TMP DP  RH WIND       PRES   REMARKS
AMES           CLOUDY    14  12  92 CALM      30.06F FOG              
ANKENY *       CLOUDY    30  25  80 VRB5      30.08F WCI  25          
BOONE *        CLOUDY    28  23  80 SW6       30.04F WCI  22          
CHARITON *     PTCLDY    32  27  80 S13       30.09F WCI  22          
DES MOINES     CLOUDY    29  22  75 S9        30.07F WCI  20          
GRINNELL*      CLOUDY    29  24  80 S10       30.09F WCI  20          
KNOXVILLE *    CLEAR     34  25  69 S13G21    30.08F WCI  25          
MARSHALLTOWN   CLOUDY    28  22  78 S9        30.06F WCI  19          
NEWTON *       CLOUDY    32  25  74 SW13      30.08F WCI  22          
PELLA *        CLOUDY    33  26  73 SW7       30.11F WCI  27          
PERRY *        FAIR      19  18  93 S6        30.05F WCI  11          
$$
 
IAZ004>006-015-016-023>025-035-036-141000-
   NORTH CENTRAL IOWA
  
CITY           SKY/WX    TMP DP  RH WIND       PRES   REMARKS
ALGONA *       CLOUDY    18 N/A N/A S12       29.99F HAZE    WCI   5  
CLARION *      CLOUDY    19  19 100 S6        30.03F WCI  11          
ESTHERVILLE    CLOUDY    17  15  92 SW10      29.96F WCI   5          
FORT DODGE *   CLOUDY    25  21  85 S6        30.03F WCI  18          
MASON CITY     CLOUDY    15  12  88 S5        30.02F FOG     WCI   8  
FOREST CITY *  FAIR      23  21  93 SW3       30.01F                  
WEBSTER CITY * CLOUDY    25  21  86 SW13      30.01F WCI  13          
IOWA FALLS *   FAIR      28  23  81 SW10      30.05F WCI  19          
$$

IAZ007>011-017>019-026>030-037>042-050>054-066-141000-
   NORTHEAST IOWA
  
CITY           SKY/WX    TMP DP  RH WIND       PRES   REMARKS
CEDAR RAPIDS   FAIR      30  22  72 S7        30.10F WCI  23          
CLINTON *      FAIR      25  23  92 SW13      30.15F WCI  14          
DECORAH *      FAIR      28  21  74 SW9G17    30.02F WCI  20          
DUBUQUE        FAIR      23  18  81 S12       30.09F WCI  12          
MONTICELLO *   FAIR      23  19  86 S7        30.11F WCI  15          
OELWEIN *      FAIR      19  19 100 S12       30.07F WCI   7          
WATERLOO       FAIR      21  18  88 SE5       30.07F WCI  15          
$$
 
IAZ064-065-067-068-078-141000-
   EAST CENTRAL IOWA
  
CITY           SKY/WX    TMP DP  RH WIND       PRES   REMARKS
DAVENPORT      FAIR      32  24  72 S9        30.16F WCI  24          
IOWA CITY      FOG       17  13  84 CALM      30.15F VSB 1/4          
MT. PLEASANT * CLOUDY    28  23  80 S9        30.15F WCI  20          
MUSCATINE *    FOG       12   9  85 CALM      30.16F VSB<1/4          
QUAD CITIES    FAIR      33  25  72 SW9       30.14F WCI  25          
$$
 
IAZ062-063-075>077-085>089-095>099-141000-
   SOUTHEAST IOWA
  
CITY           SKY/WX    TMP DP  RH WIND       PRES   REMARKS
BURLINGTON     CLOUDY    28  23  81 S7        30.15F WCI  21          
FAIRFIELD *    CLOUDY    30  23  74 S9        30.13F WCI  22          
FORT MADISON * CLOUDY    32  27  80 S9        30.17F WCI  24          
KEOKUK *       CLOUDY    34  28  80 S8        30.16F WCI  27          
OSKALOOSA *    FAIR      26  22  85 S8        30.11F WCI  17          
OTTUMWA        CLOUDY    31  24  75 S10       30.11F WCI  22          
WASHINGTON *   CLOUDY    28  25  86 S12       30.14F WCI  18          
$$

ABBREVIATIONS USED IN REMARKS
   TC - TEMPERATURES IN CELSIUS
  WCI - WIND CHILL INDEX
   HX - HEAT INDEX
  VSB - VISIBILITY  
$$

  

790 
ASUS43 KDMX 140901
RWRIA 

WEATHER ROUNDUP FOR IOWA
NATIONAL WEATHER SERVICE DES MOINES IA
300 AM CST WED FEB 14 2018

NOTE: "FAIR" INDICATES FEW OR NO CLOUDS BELOW 12,000 FEET WITH NO
SIGNIFICANT WEATHER AND/OR OBSTRUCTIONS TO VISIBILITY.

* - THESE STATIONS ARE NOT NWS STATIONS...THUS NOT UNDER NWS
QUALITY CONTROL.  THEY ALSO DO NOT REPORT WEATHER SUCH 
AS PRECIPITATION OR FOG.  

IAZ001>003-012>014-020>022-031>034-043>046-141000-
   NORTHWEST IOWA
  
CITY           SKY/WX    TMP DP  RH WIND       PRES   REMARKS
CARROLL *      CLOUDY    32  27  80 SW14      30.01F WCI  22          
CHEROKEE *     CLOUDY    18  18 100 CALM      30.00F                  
DENISON *      CLEAR     27  25  93 CALM      30.03F                  
LE MARS *      CLEAR     19  19 100 S7        29.99F WCI  10          
ORANGE CITY *  CLOUDY    19  18  93 S6        29.97F WCI  11          
SHELDON *      CLOUDY    18  18 100 S9        29.96F WCI   6          
SIOUX CITY     CLOUDY    19  17  92 E8        30.00F WCI   9          
SPENCER        CLOUDY    16  12  84 W6        29.98F WCI   7          
STORM LAKE *   CLOUDY    28  23  80 SW14      30.00F WCI  17          
$$
 
IAZ055>058-069>071-079>083-090>094-141000-
   SOUTHWEST IOWA
  
CITY           SKY/WX    TMP DP  RH WIND       PRES   REMARKS
ATLANTIC *     CLOUDY    25  25 100 S6        30.06F WCI  18          
AUDUBON *      CLOUDY    32  27  80 S9        30.04F WCI  24          
CLARINDA *     CLEAR     28  28 100 SW6       30.11F WCI  22          
COUNCIL BLFS * CLOUDY    36  32  87 SW10      30.04F WCI  28          
CRESTON *      CLEAR     32  27  80 SW12      30.08F WCI  23          
HARLAN  *      CLOUDY    21  21 100 SW6       30.07F WCI  14          
LAMONI         CLEAR     32  26  78 S12       30.10F WCI  23          
RED OAK *      CLEAR     28  25  86 CALM      30.07F                  
SHENANDOAH *   CLEAR     28  27  93 SE3       30.08F                  
$$
 
IAZ047>049-059>061-072>074-084-141000-
   CENTRAL IOWA
  
CITY           SKY/WX    TMP DP  RH WIND       PRES   REMARKS
AMES           CLOUDY    14  12  92 CALM      30.06F FOG              
ANKENY *       CLOUDY    30  25  80 VRB5      30.08F WCI  25          
BOONE *        CLOUDY    28  23  80 SW6       30.04F WCI  22          
CHARITON *     PTCLDY    32  27  80 S13       30.09F WCI  22          
DES MOINES     CLOUDY    29  22  75 S9        30.07F WCI  20          
GRINNELL*      CLOUDY    29  24  80 S10       30.09F WCI  20          
KNOXVILLE *    CLEAR     34  25  69 S13G21    30.08F WCI  25          
MARSHALLTOWN   CLOUDY    28  22  78 S9        30.06F WCI  19          
NEWTON *       CLOUDY    32  25  74 SW13      30.08F WCI  22          
PELLA *        CLOUDY    33  26  73 SW7       30.11F WCI  27          
$$
 
IAZ004>006-015-016-023>025-035-036-141000-
   NORTH CENTRAL IOWA
  
CITY           SKY/WX    TMP DP  RH WIND       PRES   REMARKS
CLARION *      CLOUDY    19  19 100 S6        30.03F WCI  11          
ESTHERVILLE    CLOUDY    17  15  92 SW10      29.96F WCI   5          
FORT DODGE *   CLOUDY    25  21  85 S6        30.03F WCI  18          
MASON CITY     CLOUDY    15  12  88 S5        30.02F FOG     WCI   8  
FOREST CITY *  FAIR      23  21  93 SW3       30.01F                  
WEBSTER CITY * CLOUDY    25  21  86 SW13      30.01F WCI  13          
IOWA FALLS *   FAIR      28  23  81 SW10      30.05F WCI  19          
$$

IAZ007>011-017>019-026>030-037>042-050>054-066-141000-
   NORTHEAST IOWA
  
CITY           SKY/WX    TMP DP  RH WIND       PRES   REMARKS
CEDAR RAPIDS   FAIR      30  22  72 S7        30.10F WCI  23          
CLINTON *      FAIR      25  23  92 SW13      30.15F WCI  14          
DECORAH *      FAIR      28  21  74 SW9G17    30.02F WCI  20          
DUBUQUE        FAIR      23  18  81 S12       30.09F WCI  12          
MONTICELLO *   FAIR      23  19  86 S7        30.11F WCI  15          
OELWEIN *      FAIR      19  19 100 S12       30.07F WCI   7          
WATERLOO       FAIR      21  18  88 SE5       30.07F WCI  15          
$$
 
IAZ064-065-067-068-078-141000-
   EAST CENTRAL IOWA
  
CITY           SKY/WX    TMP DP  RH WIND       PRES   REMARKS
DAVENPORT      FAIR      32  24  72 S9        30.16F WCI  24          
IOWA CITY      FOG       17  13  84 CALM      30.15F VSB 1/4          
MT. PLEASANT * CLOUDY    28  23  80 S9        30.15F WCI  20          
MUSCATINE *    FOG       12   9  85 CALM      30.16F VSB<1/4          
QUAD CITIES    FAIR      33  25  72 SW9       30.14F WCI  25          
$$
 
IAZ062-063-075>077-085>089-095>099-141000-
   SOUTHEAST IOWA
  
CITY           SKY/WX    TMP DP  RH WIND       PRES   REMARKS
BURLINGTON     CLOUDY    28  23  81 S7        30.15F WCI  21          
FAIRFIELD *    CLOUDY    30  23  74 S9        30.13F WCI  22          
FORT MADISON * CLOUDY    32  27  80 S9        30.17F WCI  24          
KEOKUK *       CLOUDY    34  28  80 S8        30.16F WCI  27          
OSKALOOSA *    FAIR      26  22  85 S8        30.11F WCI  17          
OTTUMWA        CLOUDY    31  24  75 S10       30.11F WCI  22          
WASHINGTON *   CLOUDY    28  25  86 S12       30.14F WCI  18          
$$

ABBREVIATIONS USED IN REMARKS
   TC - TEMPERATURES IN CELSIUS
  WCI - WIND CHILL INDEX
   HX - HEAT INDEX
  VSB - VISIBILITY  
$$